Regional Weather Roundup
Issued by NWS

Home | Current Version | Previous Version | Text Only | Print | Product List | Glossary On
Versions: 1 2 3 4 5 6 7 8 9 10 11 12 13 14 15 16 17 18 19 20 21 22 23 24 25 26 27 28 29 30 31 32 33 34 35 36 37 38 39 40 41 42 43 44 45 46 47 48 49 50
000
ASUS43 KDTX 180910
RWRMI
MICHIGAN HOURLY REGIONAL WEATHER ROUNDUP
NATIONAL WEATHER SERVICE DETROIT/PONTIAC MI
500 AM EDT FRI AUG 18 2017

NOTE: "FAIR" INDICATES FEW OR NO CLOUDS BELOW 12,000 FEET WITH NO
SIGNIFICANT WEATHER AND/OR OBSTRUCTION TO VISIBILITY.

MIZ047>049-052>055-059>063-066>070-074>076-081>083-181000-
SOUTHEAST LOWER MICHIGAN

CITY           SKY/WX    TMP DP  RH WIND       PRES   REMARKS
ADRIAN         CLEAR     68  65  90 W6        29.76R
ALMA           CLOUDY    66  64  91 W14G22    29.67R
ANN ARBOR      CLEAR     69  66  90 SW13      29.72S
BAD AXE        CLEAR     66  64  92 S7        29.65S
CARO           MOCLDY    68  64  89 SW10      29.65S
DETROIT CITY   CLEAR     71  66  84 SW13      29.71R
DETROIT        PTCLDY    70  66  87 SW12      29.72F
FLINT          PTCLDY    70  64  81 SW10G21   29.68S
GROSSE ILE     CLEAR     71  66  85 W10       29.71S
HILLSDALE      MOCLDY    66  61  82 SW7       29.75F
HOWELL         MOCLDY    69  62  78 W13G21    29.71R

CITY           SKY/WX    TMP DP  RH WIND       PRES   REMARKS
JACKSON          N/A     68  60  75 SW10      29.73S
LAMBERTVILLE   CLEAR     70  66  86 W7        29.74S
LANSING        MOCLDY    69  62  78 SW13G23   29.70R
LAPEER         MOCLDY    70  66  88 SW7       29.68S
MASON          PTCLDY    70  62  75 W10G16    29.72R
MONROE         CLEAR     70  66  88 SW7       29.73S
MT. CLEMENS    CLEAR     72  67  85 SW8       29.69R
PONTIAC        CLEAR     70  67  90 SW9       29.69S
PORT HOPE        N/A     69  64  84 VRB3      29.62S
PORT HURON     CLEAR     68  64  88 S5        29.69S
TRI CITIES     CLOUDY    70  67  90 SW12      29.64S
MIDLAND        RAIN      69  66  90 SW9       29.62S
TROY           CLEAR     72  66  82 SW9G16    29.72S
SAGINAW HB     MOCLDY    68  64  88 SW9       29.65S
$$
MIZ043>046-050>051-056>058-064>065-071>073-077>080-181000-
SOUTHWEST LOWER MICHIGAN

CITY           SKY/WX    TMP DP  RH WIND       PRES   REMARKS
BATTLE CREEK   LGT RAIN  69  63  81 W18       29.74S
BENTON HARBOR  MOCLDY    70  63  78 W14       29.75S
BIG RAPIDS     CLOUDY    64  61  90 W9G18     29.65S FOG
COLDWATER      CLEAR     66  64  93 SW5       29.75S
FREMONT        CLOUDY    66  64  91 W9G17     29.67S
HOLLAND        CLOUDY    70  61  73 W12G22    29.72S
GRAND RAPIDS   CLOUDY    68  64  87 W16G23    29.70R
IONIA          CLOUDY    68  62  83 W14G24    29.69R
KALAMAZOO      CLOUDY    70  61  73 SW12      29.74S
LUDINGTON      CLOUDY    66  59  78 W10       29.65S
MARSHALL       MOCLDY    68  63  83 W10       29.73S
MOUNT PLEASANT DRIZZLE   69  65  86 W13G18    29.64R
MUSKEGON       CLOUDY    69  61  75 W10G21    29.69S
SOUTH HAVEN    CLOUDY    71  62  74 W12       29.74S
$$
MIZ016>042-181000-
NORTHERN LOWER MICHIGAN

CITY           SKY/WX    TMP DP  RH WIND       PRES   REMARKS
ALPENA         PTCLDY    68  67  96 S9        29.56S
BEAVER ISLAND  CLOUDY    67  67  99 W12       29.53R
BELLAIRE       DRIZZLE   66  64  93 W3        29.57R
CADILLAC       DRIZZLE   66  63  90 W8        29.62S
CHARLEVOIX     CLOUDY    66  66 100 W18G24    29.57R
FRANKFORT      CLOUDY    67  64  91 W17       29.60S
GAYLORD        CLOUDY    65  63  93 SW12G22   29.57S
GRAYLING       DRIZZLE   65  63  93 SW7       29.60S
HARBOR SPRINGS CLOUDY    67  66  94 W10G17    29.52S
HOUGHTON LAKE  CLOUDY    66  63  90 SW13      29.61S
MANISTEE       CLOUDY    66  61  84 W16G24    29.63R
OSCODA         PTCLDY    68  66  92 SW12G21   29.59S
PELLSTON       LGT RAIN  68  67  96 W10       29.52S
ROGERS CITY    CLOUDY    67  65  93 SW5       29.54F
TRAVERSE CITY  CLOUDY    67  63  87 W10       29.57S
$$
MIZ007>008-015-181000-
EASTERN UPPER MICHIGAN

CITY           SKY/WX    TMP DP  RH WIND       PRES   REMARKS
KINROSS        CLOUDY    67  67 100 S5        29.50F
MACKINAC ISLAN CLOUDY    67  67 100 SW7       29.50S
NEWBERRY       FOG       66  65  97 W5        29.50S VSB 3/4
S. S. MARIE    LGT RAIN  65  64  97 NE6       29.49F FOG
MUNISING         N/A     62 N/A N/A NW15G30   29.55R
$$
MIZ004>006-011>014-085-181000-
CENTRAL UPPER MICHIGAN

CITY           SKY/WX    TMP DP  RH WIND       PRES   REMARKS
MANISTIQUE     CLOUDY    63  57  82 NW10      29.53S
ESCANABA       CLOUDY    63  60  90 NW13G22   29.56S
MENOMINEE      CLOUDY    64  60  87 W8        29.62R
SAWYER-GWINN   CLOUDY    59  57  94 NW13G22   29.59R
$$
MIZ001>003-009>011-084-181000-
WESTERN UPPER MICHIGAN

CITY           SKY/WX    TMP DP  RH WIND       PRES   REMARKS
IRON MOUNTAIN  CLOUDY    63  57  81 NW15G22   29.62R
HOUGHTON       LGT RAIN  57  55  93 NW20G28   29.63R FOG
COPPER HARBOR    N/A     55  54  96 NE9       29.60R
IRONWOOD       CLOUDY    60  59  96 W10       29.75R
$$

ABBREVIATIONS USED IN REMARKS
   TC - TEMPERATURE IN CELSIUS
  WCI - WIND CHILL INDEX
   HX - HEAT INDEX
  VSB - VISIBILITY





USA.gov is the U.S. government's official web portal to all federal, state and local government web resources and services.